Weather History for Deadhorse, AK

Change the Weather History Date:

Monday, December 3, 2012

  Actual Average Record
Temperature  
Mean Temperature 0 °F -  
Max Temperature 1 °F 0 °F 28 °F (1992)
Min Temperature -2 °F -10 °F -45 °F (1988)
Degree Days  
Heating Degree Days 66    
Moisture  
Dew Point -5 °F    
Average Humidity 81    
Maximum Humidity 88    
Minimum Humidity 75    
Precipitation  
Precipitation 0.00 in - - ()
Sea Level Pressure  
Sea Level Pressure 30.35 in    
Wind  
Wind Speed 10 mph (SW)    
Max Wind Speed 14 mph    
Max Gust Speed -    
Visibility 10 miles    
Events Snow    
Averages and records for this station are not official NWS values.
T = Trace of Precipitation, MM = Missing Value Source: NWS Daily Summary

Daily Weather History Graph

Daily Weather History Graph

Search for Another Location

Airport:

Trip Planner

Search our weather history database for the weather conditions in past years. The results will help you decide how hot, cold, wet, or windy it might be!

Date:

Astronomy

Dec. 03, 2012 Rise Set
Actual Time 12:11 PM AKST 1:16 PM AKST
Civil Twilight 10:17 AM AKST 3:10 PM AKST
Nautical Twilight 8:36 AM AKST 4:50 PM AKST
Astronomical Twilight 7:18 AM AKST 6:09 PM AKST
Moon 8:42 PM AKST (12/3) 1:21 PM AKST (12/3)
Length of Visible Light 4h 53m
Length of Day
1h 04m
Waning Gibbous, 77% of the Moon is Illuminated
Dec 3
Waning Gibbous
Dec 6
Last Quarter
Dec 12
New
Dec 19
First Quarter
Dec 28
Full

Hourly Weather History & Observations

Time (AKST) Temp. Windchill Dew Point Humidity Pressure Visibility Wind Dir Wind Speed Gust Speed Precip Events Conditions
12:53 AM -0.0 °F -18.0 °F -2.9 °F 88% 30.30 in 8.0 mi SW 12.7 mph - 0.00 in Snow Light Snow
1:53 AM -0.0 °F -17.1 °F -4.0 °F 83% 30.30 in 7.0 mi SW 11.5 mph - 0.00 in Snow Light Snow
2:53 AM -0.0 °F -16.3 °F -4.0 °F 83% 30.31 in 9.0 mi WSW 10.4 mph - 0.00 in Snow Light Snow
3:53 AM -0.0 °F -16.3 °F -4.0 °F 83% 30.33 in 9.0 mi SW 10.4 mph - 0.00 in Snow Light Snow
4:53 AM 1.0 °F -15.8 °F -2.9 °F 83% 30.33 in 10.0 mi SW 11.5 mph - 0.00 in Snow Light Snow
5:53 AM 1.0 °F -14.0 °F -2.9 °F 83% 30.33 in 10.0 mi WSW 9.2 mph - 0.00 in Snow Light Snow
6:53 AM 1.0 °F -17.3 °F -4.0 °F 79% 30.32 in 10.0 mi SW 13.8 mph - 0.00 in Snow Light Snow
7:53 AM -0.0 °F -17.1 °F -4.0 °F 83% 30.33 in 10.0 mi SW 11.5 mph - 0.00 in Snow Light Snow
8:53 AM -0.0 °F -17.1 °F -4.0 °F 83% 30.34 in 9.0 mi SW 11.5 mph - 0.00 in Snow Light Snow
9:53 AM -0.0 °F -17.1 °F -4.0 °F 83% 30.35 in 10.0 mi SW 11.5 mph - 0.00 in Snow Light Snow
10:53 AM -0.0 °F -16.3 °F -4.0 °F 83% 30.35 in 10.0 mi SW 10.4 mph - 0.00 in Snow Light Snow
11:53 AM -0.0 °F -15.3 °F -4.0 °F 83% 30.36 in 9.0 mi SW 9.2 mph - 0.00 in Snow Light Snow
12:53 PM -0.0 °F -15.3 °F -5.1 °F 79% 30.36 in 10.0 mi SW 9.2 mph - 0.00 in Snow Light Snow
1:53 PM -0.0 °F -15.3 °F -5.1 °F 79% 30.36 in 10.0 mi SW 9.2 mph - 0.00 in Snow Light Snow
2:53 PM -0.0 °F -15.3 °F -5.1 °F 79% 30.37 in 9.0 mi SW 9.2 mph - 0.00 in Snow Light Snow
3:53 PM -0.0 °F -13.0 °F -5.1 °F 79% 30.38 in 10.0 mi SSW 6.9 mph - 0.00 in   Overcast
4:53 PM -0.0 °F -14.2 °F -5.1 °F 79% 30.37 in 9.0 mi WSW 8.1 mph - N/A   Overcast
5:53 PM -0.0 °F -14.2 °F -6.0 °F 76% 30.38 in 10.0 mi WSW 8.1 mph - N/A   Overcast
6:53 PM -0.0 °F -14.2 °F -5.1 °F 79% 30.37 in 10.0 mi WSW 8.1 mph - N/A   Overcast
7:53 PM -0.9 °F -12.7 °F -6.0 °F 79% 30.37 in 10.0 mi WSW 5.8 mph - N/A   Overcast
8:53 PM -2.0 °F -16.6 °F -6.0 °F 83% 30.37 in 10.0 mi West 8.1 mph - N/A   Overcast
9:53 PM -2.0 °F -13.9 °F -7.1 °F 79% 30.37 in 10.0 mi West 5.8 mph - 0.00 in Snow Light Snow
10:53 PM -0.9 °F - -6.0 °F 79% 30.38 in 10.0 mi Calm Calm - 0.00 in Snow Light Snow
11:53 PM -0.9 °F - -7.1 °F 75% 30.38 in 10.0 mi Calm Calm - 0.00 in Snow Light Snow